Weather in Sargatskoe

Russia / Omsk Oblast     55˚36′35″N   73˚30′00″E
temp.,
°C
wind,
m/s
gust,
m/s
humid.,
%
clouds,
%
prec.,
mm/h
давл.,
hPa
HPBL,
m
27 november, fri
fri2700:00−14˚se489639 0.0 1038162
03:00−14˚se36960 0.0 1037109
06:00−15˚ese36960 0.0 1037118
09:00−15˚ese369654 0.0 1036134
12:00−12˚ese479360 0.0 1036256
15:00−12˚ese369477 0.0 1035243
18:00−14˚ese369654 0.0 1035112
21:00−15˚ese36965 0.0 1035110
28 november, sat
sat2800:00−16˚ese34962 0.0 103561
03:00−16˚e33960 0.0 103553
06:00−16˚e339625 0.0 103549
09:00−16˚e34960 0.0 103564
12:00−14˚ene35936 0.0 1036217
15:00−13˚ne359476 0.0 1036212
18:00−14˚ne379688 0.0 1037153
21:00−15˚ne3696100 0.0 1038143
29 november, sun
sun2900:00−15˚nne359697 0.0 1038102
03:00−15˚nne379696 0.0 1039150
06:00−15˚n479598 0.0 1041163
09:00−17˚n369759 0.0 1042115
12:00−14˚n469440 0.0 1043224
15:00−14˚nnw369462 0.0 1044239
18:00−16˚nnw369654 0.0 104695
21:00−17˚n349711 0.0 104768
30 november, mon
mon3000:00−17˚n339728 0.0 104741
03:00−17˚n339726 0.0 104852
06:00−18˚nnw239723 0.0 104931
09:00−18˚nnw229722 0.0 105020
12:00−16˚nnw239411 0.0 1051122
15:00−15˚nw22940 0.0 105147
18:00−17˚wnw22950 0.0 105220
21:00−18˚wnw22959 0.0 105220
1 december, tue
tue100:00−18˚wnw23945 0.0 105220
03:00−18˚w23940 0.0 105222
06:00−18˚w33930 0.0 105332
09:00−18˚w23920 0.0 105327
12:00−15˚w24900 0.0 1053122
15:00−14˚wsw24900 0.0 105399
18:00−16˚w23900 0.0 105324
21:00−16˚w23890 0.0 105326